[[{"header":{"parameterUnit":"m.s-1","parameterCategory":1,"la1":30.2991,"la2":30.254,"lo1":-89.0895,"lo2":-89.0444,"dy":0.0017,"dx":0.0017,"nx":28,"ny":28,"refTime":"2024-06-26T21:00:00:Z","depth":0,"parameterNumber":2,"parameterNumberName":"U-component_of_WINDS"},"data":[0,0,0,0,0,0,0,0,0,0,0,0,0,0,0,0,0,0,0,0,0,0,0,0,0,0,0,0,0,0,0,0,0,0,0,0,0,0,0,0,0,0,0,0,0,0,0,0,0,0,0,0,0,0,0,0,0,0,5.1443,5.1446,0,5.1655,5.1658,5.166,5.1586,5.1581,5.1576,5.1572,5.1797,5.1807,5.1817,0,0,0,0,0,0,0,0,0,0,0,0,0,5.098,5.0989,5.1443,5.1446,5.1448,5.1655,5.1658,5.1661,5.1587,5.1581,5.1575,5.157,5.1794,5.1806,5.1818,0,0,0,0,0,0,0,0,0,0,0,0,0,5.1186,5.0992,5.1443,5.1436,5.1438,5.1654,5.1658,5.1662,5.1588,5.1581,5.1574,5.1567,5.179,5.1805,5.182,5.2058,0,0,5.1868,5.1875,0,0,0,0,0,0,0,0,5.1174,5.1203,5.1434,5.1437,5.1439,5.1587,5.1577,5.1795,5.159,5.1531,5.1572,5.1564,5.1733,5.1753,5.1809,5.2069,5.2079,5.1869,5.1879,5.1885,5.189,0,0,0,0,0,0,0,5.116,5.1193,5.1527,5.1438,5.1441,5.1425,5.1446,5.1618,5.167,5.1536,5.1531,5.1556,5.1733,5.1794,5.1813,5.2082,5.1869,5.1883,5.1892,5.1898,5.2547,5.2554,0,0,0,0,0,0,5.1144,5.1182,5.152,5.1534,5.1286,5.1439,5.1463,5.1547,5.1667,5.1679,5.1562,5.1552,5.1771,5.1795,5.1821,5.2106,5.1885,5.19,5.1909,5.2539,5.2548,5.2557,0,0,0,0,0,0,5.1134,5.1175,5.1512,5.1357,5.1398,5.1454,5.1549,5.1555,5.1615,5.1687,5.1697,5.1614,5.1766,5.1799,5.1999,5.2113,5.1907,5.1921,5.253,5.2542,5.2553,5.268,0,0,0,0,0,0,5.1121,5.1172,5.1261,5.1359,5.1407,5.1685,5.1556,5.1564,5.1641,5.163,5.1739,5.175,5.1763,5.1976,5.2014,5.2131,5.1933,5.252,5.2535,5.2549,5.2665,5.2694,5.2719,0,0,0,0,0,5.1105,5.1291,5.1266,5.1307,5.152,5.1691,5.1719,5.1728,5.1651,5.1742,5.1788,5.1747,5.2095,5.1997,5.204,5.2163,5.2512,5.2531,5.2548,5.2653,5.2689,5.2718,0,0,0,0,0,0,5.1208,5.1303,5.1277,5.15,5.1588,5.1678,5.1794,5.1765,5.1879,5.1864,5.1872,5.1898,5.2103,5.2153,5.2043,5.2399,5.2292,5.2319,5.2358,5.2392,5.2418,5.2401,5.1946,0,0,0,0,0,5.1256,5.1385,5.1463,5.1652,5.1697,5.1738,5.1813,5.1812,5.1905,5.1942,5.2003,5.2097,5.2227,5.2312,5.2436,5.2673,5.2695,5.2778,5.2805,5.2827,5.285,5.2977,5.3014,5.2615,5.2615,5.2615,0,0,5.1358,5.1426,5.1508,5.1674,5.1742,5.1877,5.177,5.1918,5.2019,5.1966,5.2156,5.2205,5.231,5.2528,5.2628,5.2577,5.2965,5.2849,5.2866,5.2877,5.2999,5.3036,5.307,5.2627,5.2625,5.2623,0,0,5.1612,5.1677,5.184,5.191,5.2013,5.2038,5.2078,5.2173,5.2202,5.2393,5.2355,5.2477,5.2701,5.2777,5.2844,5.3126,5.3091,5.3166,5.3306,5.3429,5.3461,5.3489,5.3587,5.3623,5.3189,5.319,5.319,0,5.1726,5.1926,5.1929,5.2079,5.2153,5.2108,5.2274,5.2343,5.2483,5.2536,5.2476,5.2755,5.2823,5.3057,5.3125,5.3182,5.3228,5.3153,5.3456,5.3484,5.351,5.3604,5.3641,5.3198,5.3197,5.3196,5.3195,0,5.206,5.22,5.232,5.2451,5.254,5.2698,5.2726,5.2815,5.2807,5.2839,5.3035,5.3114,5.3252,5.3308,5.3303,5.3542,5.3507,5.3452,5.3345,5.3556,5.3644,5.3681,5.321,5.3207,5.3204,5.3202,0,0,5.2386,5.2515,5.2559,5.2617,5.2727,5.2836,5.2992,5.3124,5.32,5.3298,5.3429,5.3619,5.3568,5.3645,5.3648,5.3757,5.3972,5.3688,5.3691,5.3737,5.424,5.4279,5.4321,5.3951,5.3958,5.3963,5.423,0,5.2647,5.2917,5.2924,5.3172,5.3301,5.3259,5.3395,5.3478,5.3513,5.3629,5.3668,5.3802,5.3725,5.3771,5.3877,5.3924,5.4073,5.3905,5.4073,5.4079,5.4046,5.4367,5.441,5.4658,5.4265,5.4271,5.4275,0,5.2988,5.3092,5.3353,5.3441,5.3496,5.3617,5.3738,5.3849,5.3943,5.396,5.4045,5.4031,5.4192,5.4081,5.4302,5.4187,5.4257,5.429,5.43,5.4315,5.4189,5.4389,5.4738,5.4774,5.433,5.4326,5.4322,0,5.3196,5.3403,5.3584,5.3636,5.3746,5.3832,5.3882,5.3968,5.4046,5.4153,5.4204,5.433,5.4398,5.4496,5.4517,5.4434,5.4739,5.4629,5.4758,5.4758,5.4823,5.4819,5.5186,5.4871,5.4871,5.487,5.4869,0,5.3486,5.3647,5.3679,5.3791,5.397,5.3977,5.4154,5.4198,5.4275,5.4396,5.437,5.4484,5.4505,5.4625,5.4643,5.4822,5.4855,5.4874,5.4876,5.4875,5.4872,5.492,5.4902,5.488,5.4878,5.4876,5.4874,0,5.3749,5.3777,5.3972,5.4058,5.4084,5.4212,5.4286,5.4394,5.4425,5.4578,5.4615,5.4665,5.4804,5.4834,5.5001,5.5013,5.5226,5.5212,5.5193,5.5191,5.5317,5.5304,5.5727,5.5782,5.5433,5.5436,5.5439,0,5.3931,5.4053,5.4151,5.4228,5.4282,5.4407,5.4486,5.4498,5.4582,5.4697,5.4791,5.4926,5.5035,5.5259,5.5312,5.5439,5.5427,5.5566,5.5446,5.544,5.5427,5.5418,5.543,5.5589,5.5593,5.5596,5.5598,0,5.4252,5.4259,5.4372,5.449,5.4584,5.4678,5.4768,5.4834,5.4858,5.4954,5.5094,5.5178,5.5345,5.548,5.5607,5.5661,5.5634,5.5636,5.5672,5.5671,5.5654,5.5663,5.5253,5.5626,5.5623,5.5621,5.5619,5.5618,5.4479,5.4584,5.4668,5.4795,5.4863,5.4947,5.5052,5.5095,5.5211,5.5345,5.5347,5.5499,5.559,5.5756,5.5817,5.5938,5.5895,5.5948,5.5961,5.5974,5.5984,5.5635,5.5962,5.5961,5.596,5.596,5.5959,0,5.4795,5.4847,5.4963,5.5088,5.5188,5.5151,5.5249,5.5335,5.5468,5.5553,5.566,5.582,5.595,5.6012,5.6141,5.6226,5.6217,5.6259,5.6253,5.6265,5.6016,5.5971,5.6264,5.6264,5.6264,5.6264,5.6264,5.6264,5.4972,5.5147,5.5165,5.5374,5.5425,5.5572,5.563,5.5708,5.5775,5.5954,5.6061,5.6099,5.6176,5.631,5.6428,5.6443,5.6491,5.6539,5.6548,5.6314,5.6283,5.6253,5.621,5.655,5.655,5.6786,5.6789,5.679]},{"header":{"parameterUnit":"m.s-1","parameterCategory":1,"la1":30.2991,"la2":30.254,"lo1":-89.0895,"lo2":-89.0444,"dy":0.0017,"dx":0.0017,"nx":28,"ny":28,"refTime":"2024-06-26T21:00:00:Z","depth":0,"parameterNumber":3,"parameterNumberName":"V-component_of_WINDS"},"data":[0,0,0,0,0,0,0,0,0,0,0,0,0,0,0,0,0,0,0,0,0,0,0,0,0,0,0,0,0,0,0,0,0,0,0,0,0,0,0,0,0,0,0,0,0,0,0,0,0,0,0,0,0,0,0,0,0,0,1.3429,1.3427,0,1.3283,1.3282,1.328,1.3116,1.3114,1.3111,1.3109,1.2963,1.2962,1.296,0,0,0,0,0,0,0,0,0,0,0,0,0,1.3567,1.3565,1.3429,1.3427,1.3425,1.3284,1.3282,1.328,1.3117,1.3114,1.3111,1.3108,1.2964,1.2962,1.296,0,0,0,0,0,0,0,0,0,0,0,0,0,1.3473,1.3565,1.3429,1.3327,1.3316,1.3284,1.3282,1.3279,1.3117,1.3114,1.311,1.3107,1.2964,1.2962,1.296,1.3017,0,0,1.2952,1.2951,0,0,0,0,0,0,0,0,1.3479,1.3468,1.3344,1.3334,1.3322,1.3214,1.3277,1.3192,1.3118,1.3193,1.3109,1.3105,1.305,1.304,1.3021,1.3011,1.3004,1.2952,1.295,1.2949,1.2949,0,0,0,0,0,0,0,1.3485,1.3474,1.3371,1.3342,1.3329,1.3289,1.3271,1.326,1.3144,1.3186,1.3174,1.3159,1.3043,1.3024,1.3016,1.3002,1.2952,1.295,1.2948,1.2947,1.3032,1.3036,0,0,0,0,0,0,1.3507,1.348,1.3376,1.3367,1.3393,1.3289,1.327,1.3253,1.3143,1.3123,1.3162,1.3152,1.303,1.3019,1.3011,1.3071,1.2949,1.2947,1.2946,1.3028,1.3033,1.3037,0,0,0,0,0,0,1.3511,1.3499,1.3382,1.342,1.3402,1.3291,1.3273,1.3252,1.3232,1.3125,1.3104,1.3163,1.3026,1.3014,1.3017,1.3064,1.2946,1.2944,1.3024,1.303,1.3035,1.3194,0,0,0,0,0,0,1.3515,1.3502,1.3522,1.3422,1.3401,1.3391,1.3275,1.3251,1.3228,1.3213,1.3121,1.3102,1.3023,1.3021,1.3014,1.3059,1.2942,1.3019,1.3027,1.3033,1.3185,1.3205,1.3222,0,0,0,0,0,1.3521,1.3574,1.3524,1.3513,1.3424,1.3394,1.3382,1.3288,1.3232,1.3252,1.3183,1.3105,1.306,1.3023,1.3014,1.3058,1.3016,1.3024,1.3033,1.3176,1.3201,1.3222,0,0,0,0,0,0,1.3684,1.3559,1.3502,1.3524,1.3471,1.3366,1.3388,1.3317,1.328,1.3267,1.3154,1.3134,1.3151,1.3104,1.3065,1.3108,1.3026,1.3033,1.3139,1.3161,1.318,1.3192,1.294,0,0,0,0,0,1.3722,1.3707,1.3598,1.3628,1.3604,1.3501,1.3485,1.3417,1.3358,1.3334,1.3266,1.3212,1.3185,1.317,1.314,1.3176,1.3154,1.3202,1.3221,1.3237,1.3245,1.3261,1.3282,1.3064,1.3064,1.3064,0,0,1.3801,1.3731,1.3729,1.3659,1.361,1.3598,1.3483,1.3475,1.3465,1.3333,1.3332,1.328,1.3212,1.3232,1.3237,1.3194,1.33,1.3248,1.3261,1.326,1.3272,1.3293,1.3311,1.307,1.3069,1.3068,0,0,1.3939,1.3884,1.3903,1.3856,1.3782,1.3713,1.3718,1.3623,1.3584,1.358,1.3481,1.3467,1.3424,1.338,1.3352,1.3472,1.3399,1.3466,1.3565,1.3582,1.3599,1.3614,1.3658,1.3676,1.3473,1.3474,1.3474,0,1.4048,1.4025,1.3922,1.392,1.3893,1.3771,1.3789,1.3749,1.367,1.3654,1.3605,1.3548,1.3494,1.3502,1.3532,1.3512,1.3515,1.3477,1.3605,1.3619,1.3631,1.3672,1.3689,1.3482,1.3481,1.3481,1.348,0,1.4162,1.4147,1.4171,1.4097,1.4072,1.4081,1.398,1.3967,1.3902,1.3838,1.3836,1.3766,1.372,1.3716,1.3653,1.3716,1.3691,1.3626,1.3541,1.3662,1.3699,1.3714,1.3495,1.3492,1.3489,1.3487,0,0,1.44,1.4268,1.4279,1.4244,1.4153,1.414,1.4143,1.4097,1.4089,1.4038,1.4038,1.4004,1.3942,1.391,1.384,1.3855,1.3957,1.3787,1.3784,1.3823,1.4024,1.4075,1.4095,1.3907,1.3909,1.3911,1.403,0,1.4523,1.452,1.4428,1.4452,1.4437,1.4321,1.4324,1.4269,1.421,1.419,1.4123,1.4102,1.4021,1.4001,1.4011,1.3943,1.3996,1.3933,1.3908,1.3908,1.393,1.4114,1.4168,1.4283,1.4043,1.4046,1.4047,0,1.4667,1.4624,1.4646,1.4555,1.4545,1.4549,1.4499,1.4481,1.4417,1.4372,1.4337,1.4257,1.4254,1.4173,1.4168,1.4128,1.4111,1.4076,1.4078,1.4074,1.3987,1.4116,1.4318,1.4336,1.4069,1.4067,1.4066,0,1.484,1.4788,1.4794,1.4767,1.4661,1.4666,1.4622,1.4554,1.4532,1.4488,1.4473,1.443,1.4408,1.4377,1.4288,1.4237,1.4294,1.4205,1.4258,1.4261,1.4277,1.4278,1.4481,1.4264,1.4264,1.4264,1.4263,0,1.4988,1.5007,1.487,1.4875,1.4892,1.4786,1.4806,1.4751,1.4691,1.4683,1.458,1.4575,1.4456,1.4438,1.4369,1.4376,1.4366,1.4331,1.4313,1.4341,1.4346,1.4331,1.4321,1.4268,1.4267,1.4266,1.4266,0,1.5186,1.5095,1.5094,1.4993,1.4968,1.4986,1.4899,1.4899,1.4833,1.4824,1.4816,1.4712,1.4686,1.4593,1.4544,1.4497,1.4527,1.449,1.4549,1.4537,1.4596,1.4593,1.4798,1.482,1.4589,1.4591,1.4593,0,1.5287,1.5298,1.5198,1.5185,1.5145,1.5125,1.5102,1.4997,1.4978,1.4905,1.4915,1.4879,1.4846,1.4809,1.473,1.4692,1.4654,1.4729,1.4648,1.4677,1.4657,1.4658,1.4659,1.4747,1.475,1.4753,1.4755,0,1.5477,1.5431,1.5401,1.5356,1.5332,1.5291,1.5245,1.524,1.5123,1.5107,1.5078,1.5052,1.5001,1.4968,1.4917,1.4871,1.4795,1.478,1.4791,1.4821,1.4855,1.4839,1.4598,1.4777,1.4774,1.4773,1.4772,1.4771,1.5629,1.5634,1.5565,1.5535,1.5489,1.5448,1.5444,1.5377,1.535,1.53,1.524,1.5219,1.5154,1.5077,1.5038,1.5021,1.4978,1.4993,1.4997,1.5003,1.5018,1.4857,1.5011,1.501,1.5009,1.5009,1.5008,0,1.5815,1.5764,1.5738,1.5676,1.5654,1.5581,1.5526,1.5512,1.5495,1.544,1.5409,1.5376,1.5343,1.5262,1.5221,1.5223,1.5187,1.5216,1.5216,1.5207,1.5057,1.5053,1.5246,1.5246,1.5246,1.5246,1.5246,1.5246,1.5909,1.5914,1.586,1.5842,1.579,1.5768,1.5743,1.5705,1.5661,1.5629,1.5601,1.5548,1.5483,1.5437,1.5404,1.538,1.5371,1.5413,1.5379,1.524,1.5218,1.5196,1.5191,1.5411,1.5411,1.553,1.5531,1.5532]}]]